Location: Colonial Hills
(40.5656°N, 77.6119°W)
Time: 05:55:28
(UTC+00:00)

ISS - Visible Passes

Search period start: 25 November 2020 00:00
Search period end: 05 December 2020 00:00
Orbit: 418 x 421 km, 51.6° (Epoch: 25 November)

Date Brightness Start Highest point End Pass type
(mag) Time Alt. Az. Time Alt. Az. Time Alt. Az.
25 Nov -2.2 22:34:01 10° W 22:36:58 27° NNW 22:39:50 10° NE visible
26 Nov -1.4 23:24:57 10° NW 23:26:53 14° N 23:27:11 14° N visible
27 Nov -1.6 22:36:53 10° WNW 22:39:09 17° NNW 22:41:25 10° NNE visible
28 Nov -1.2 23:27:40 10° NNW 23:28:53 12° N 23:28:53 12° N visible
29 Nov -1.4 22:39:46 10° NW 22:41:25 13° N 22:43:05 10° NNE visible
30 Nov -1.3 23:29:36 10° NNW 23:30:34 13° N 23:30:34 13° N visible
01 Dec -1.5 22:42:04 10° NNW 22:43:43 13° N 22:44:58 11° NNE visible
02 Dec -1.6 23:31:03 10° NNW 23:32:23 17° N 23:32:23 17° N visible
03 Dec -1.9 22:43:39 10° NNW 22:45:55 17° NNE 22:46:54 15° NE visible
04 Dec -2.4 23:32:24 10° NW 23:34:30 29° NNW 23:34:30 29° NNW visible
